Location: *
(46.1833°N, 22.7667°E)
Time: 09:44:42
(UTC+00:00)

Cosmos 1378 - Pass Details

Date: 17 September 2019
Orbit: 493 x 502 km, 82.5° (Epoch: 14 October)

Event Time Altitude Azimuth Distance (km) Brightness Sun altitude
Rises 17:05:00 0° 353° (N) 2,613 7.0 -5.6°
Reaches altitude 10° 17:07:08 10° 356° (N) 1,723 6.0 -6.0°
Maximum altitude 17:10:54 68° 80° (E) 547 3.1 -6.6°
Drops below altitude 10° 17:14:37 10° 164° (SSE) 1,705 5.6 -7.2°
Sets 17:16:44 0° 167° (SSE) 2,583 6.5 -7.6°
